Location: Home
(42.5358°N, 72.7383°W)
Time: 00:19:10
(UTC-05:00)

Vanguard 3 - Pass Details

Date: 29 November 2021
Orbit: 508 x 3260 km, 33.3° (Epoch: 21 January)

Event Time Altitude Azimuth Distance (km) Brightness Sun altitude
Rises 02:56:48 0° 211° (SSW) 7,067 - -44.0°
Reaches altitude 10° 03:02:16 10° 203° (SSW) 6,165 - -43.0°
Exits shadow 03:04:30 14° 198° (SSW) 5,816 11.2 -42.6°
Maximum altitude 03:18:24 33° 149° (SSE) 4,318 10.8 -40.1°
Drops below altitude 10° 03:31:39 10° 93° (E) 5,115 11.9 -37.6°
Sets 03:35:35 0° 84° (E) 5,773 12.5 -36.9°
